When you browse on this site, cookies collect data to enhance your experience and personalize the content and advertising you see.
Visit our Privacy Policy to learn more. By continuing to use the site, you agree to this use of cookies and data.
  • In Czech Republic
  • List of Countries
  • For 7 days
  • Water Temperature
  • Satellite Maps
  • Weather Map
  • Weather Widgets
  • user-avatar
    Login

    Hourly Weather Lyutino

    Today, 25 May, Saturday

    Time Temperature Precipitation Wind Pressure Humidity
    00:00 +16°C° 0 mm 1 mps 742 mmHg 90%
    01:00 +15°C° 0 mm 1 mps 742 mmHg 91%
    02:00 +15°C° 0 mm 1 mps 742 mmHg 92%
    03:00 +15°C° 0 mm 1 mps 742 mmHg 93%
    04:00 +15°C° 0 mm 1 mps 742 mmHg 94%
    05:00 +15°C° 0 mm 1 mps 742 mmHg 95%
    06:00 +16°C° 0 mm 2 mps 742 mmHg 90%
    07:00 +18°C° 0 mm 2 mps 742 mmHg 86%
    08:00 +19°C° 0 mm 2 mps 742 mmHg 82%
    09:00 +20°C° 0 mm 3 mps 742 mmHg 74%
    10:00 +22°C° 0 mm 3 mps 742 mmHg 66%
    11:00 +24°C° 0 mm 3 mps 742 mmHg 58%
    12:00 +23°C° 0.4 mm 4 mps 742 mmHg 59%
    13:00 +23°C° 0.4 mm 4 mps 742 mmHg 60%
    14:00 +23°C° 0.4 mm 4 mps 742 mmHg 60%
    15:00 +23°C° 0.3 mm 4 mps 741 mmHg 61%
    16:00 +22°C° 0.3 mm 4 mps 741 mmHg 62%
    17:00 +22°C° 0.3 mm 4 mps 741 mmHg 63%
    18:00 +20°C° 0 mm 3 mps 741 mmHg 68%
    19:00 +19°C° 0 mm 3 mps 741 mmHg 72%
    20:00 +17°C° 0 mm 2 mps 742 mmHg 77%
    21:00 +16°C° 0 mm 2 mps 742 mmHg 79%
    22:00 +15°C° 0 mm 2 mps 742 mmHg 81%
    23:00 +14°C° 0 mm 2 mps 742 mmHg 83%

    Tomorrow, 26 May, Sunday

    Time Temperature Precipitation Wind Pressure Humidity
    00:00 +14°C° 0 mm 2 mps 742 mmHg 85%
    01:00 +13°C° 0 mm 2 mps 742 mmHg 88%
    02:00 +12°C° 0 mm 3 mps 743 mmHg 91%
    03:00 +12°C° 0 mm 2 mps 743 mmHg 90%
    04:00 +12°C° 0 mm 2 mps 743 mmHg 90%
    05:00 +10°C° 0 mm 2 mps 743 mmHg 89%
    06:00 +12°C° 0 mm 3 mps 743 mmHg 81%
    07:00 +13°C° 0 mm 3 mps 744 mmHg 73%
    08:00 +14°C° 0 mm 3 mps 744 mmHg 66%
    09:00 +15°C° 0 mm 4 mps 744 mmHg 60%
    10:00 +18°C° 0 mm 4 mps 744 mmHg 55%
    11:00 +19°C° 0 mm 5 mps 744 mmHg 50%
    12:00 +19°C° 0 mm 5 mps 744 mmHg 50%
    13:00 +20°C° 0 mm 5 mps 744 mmHg 51%
    14:00 +20°C° 0 mm 5 mps 743 mmHg 51%
    15:00 +20°C° 0 mm 5 mps 743 mmHg 53%
    16:00 +20°C° 0 mm 5 mps 743 mmHg 55%
    17:00 +19°C° 0 mm 5 mps 743 mmHg 57%
    18:00 +18°C° 0 mm 4 mps 743 mmHg 64%
    19:00 +17°C° 0 mm 3 mps 743 mmHg 70%
    20:00 +15°C° 0 mm 2 mps 743 mmHg 76%
    21:00 +15°C° 0 mm 2 mps 744 mmHg 78%
    22:00 +14°C° 0 mm 2 mps 744 mmHg 80%
    23:00 +14°C° 0 mm 2 mps 744 mmHg 82%

    Day after tomorrow, 27 May, Monday

    Time Temperature Precipitation Wind Pressure Humidity
    00:00 +13°C° 0 mm 2 mps 744 mmHg 85%
    01:00 +12°C° 0 mm 2 mps 744 mmHg 88%
    02:00 +10°C° 0 mm 2 mps 744 mmHg 91%
    03:00 +12°C° 0 mm 2 mps 745 mmHg 91%
    04:00 +12°C° 0 mm 2 mps 745 mmHg 90%
    05:00 +11°C° 0 mm 3 mps 745 mmHg 90%
    06:00 +13°C° 0 mm 3 mps 745 mmHg 82%
    07:00 +15°C° 0 mm 4 mps 745 mmHg 74%
    08:00 +18°C° 0 mm 4 mps 745 mmHg 66%
    09:00 +19°C° 0 mm 5 mps 745 mmHg 62%
    10:00 +21°C° 0 mm 5 mps 745 mmHg 58%
    11:00 +22°C° 0 mm 6 mps 746 mmHg 54%
    12:00 +23°C° 0.1 mm 5 mps 745 mmHg 53%
    13:00 +23°C° 0.1 mm 5 mps 745 mmHg 53%
    14:00 +25°C° 0.1 mm 5 mps 745 mmHg 52%
    15:00 +25°C° 0.1 mm 5 mps 745 mmHg 53%
    16:00 +25°C° 0.1 mm 4 mps 745 mmHg 55%
    17:00 +25°C° 0.1 mm 4 mps 745 mmHg 56%
    18:00 +22°C° 0.3 mm 3 mps 745 mmHg 66%
    19:00 +20°C° 0.3 mm 3 mps 745 mmHg 76%
    20:00 +18°C° 0.3 mm 2 mps 745 mmHg 86%
    21:00 +17°C° 0 mm 2 mps 745 mmHg 88%
    22:00 +17°C° 0 mm 2 mps 745 mmHg 91%
    23:00 +16°C° 0 mm 3 mps 745 mmHg 93%

    28 May, Tuesday

    Time Temperature Precipitation Wind Pressure Humidity
    00:00 +16°C° 0 mm 3 mps 745 mmHg 94%
    01:00 +16°C° 0 mm 3 mps 745 mmHg 95%
    02:00 +16°C° 0 mm 2 mps 745 mmHg 96%
    03:00 +16°C° 0 mm 2 mps 745 mmHg 95%
    04:00 +17°C° 0 mm 2 mps 745 mmHg 95%
    05:00 +17°C° 0 mm 2 mps 745 mmHg 95%
    06:00 +18°C° 0.1 mm 2 mps 745 mmHg 91%
    07:00 +20°C° 0.1 mm 3 mps 745 mmHg 87%
    08:00 +21°C° 0.1 mm 3 mps 745 mmHg 83%
    09:00 +22°C° 0.5 mm 3 mps 745 mmHg 78%
    10:00 +23°C° 0.5 mm 4 mps 745 mmHg 74%
    11:00 +26°C° 0.5 mm 4 mps 745 mmHg 69%
    12:00 +25°C° 0.7 mm 4 mps 744 mmHg 72%
    13:00 +25°C° 0.7 mm 4 mps 744 mmHg 76%
    14:00 +25°C° 0.7 mm 3 mps 744 mmHg 79%
    15:00 +25°C° 1.4 mm 3 mps 744 mmHg 79%
    16:00 +25°C° 1.4 mm 3 mps 744 mmHg 79%
    17:00 +25°C° 1.4 mm 4 mps 744 mmHg 79%
    18:00 +24°C° 0.1 mm 3 mps 744 mmHg 80%
    19:00 +21°C° 0.1 mm 3 mps 744 mmHg 82%
    20:00 +20°C° 0.1 mm 3 mps 744 mmHg 83%
    21:00 +20°C° 0.1 mm 3 mps 744 mmHg 83%
    22:00 +19°C° 0.1 mm 3 mps 744 mmHg 84%
    23:00 +19°C° 0.1 mm 4 mps 744 mmHg 84%

    29 May, Wednesday

    Time Temperature Precipitation Wind Pressure Humidity
    00:00 +18°C° 0 mm 4 mps 744 mmHg 84%
    01:00 +18°C° 0 mm 4 mps 743 mmHg 85%
    02:00 +18°C° 0 mm 4 mps 743 mmHg 85%
    03:00 +17°C° 0 mm 4 mps 743 mmHg 84%
    04:00 +17°C° 0 mm 4 mps 743 mmHg 84%
    05:00 +17°C° 0 mm 4 mps 743 mmHg 83%
    06:00 +18°C° 0 mm 4 mps 743 mmHg 79%
    07:00 +19°C° 0 mm 4 mps 743 mmHg 75%
    08:00 +20°C° 0 mm 5 mps 743 mmHg 71%
    09:00 +22°C° 0 mm 5 mps 743 mmHg 69%
    10:00 +23°C° 0 mm 5 mps 744 mmHg 66%
    11:00 +26°C° 0 mm 5 mps 744 mmHg 63%
    12:00 +27°C° 0.2 mm 5 mps 744 mmHg 61%
    13:00 +27°C° 0.2 mm 5 mps 744 mmHg 59%
    14:00 +28°C° 0.2 mm 5 mps 744 mmHg 56%
    15:00 +27°C° 2 mm 5 mps 744 mmHg 64%
    16:00 +25°C° 2 mm 4 mps 744 mmHg 71%
    17:00 +22°C° 2 mm 4 mps 745 mmHg 79%
    18:00 +21°C° 1.1 mm 3 mps 745 mmHg 83%
    19:00 +20°C° 1.1 mm 2 mps 746 mmHg 87%
    20:00 +20°C° 1.1 mm 1 mps 746 mmHg 91%
    21:00 +18°C° 0.1 mm 2 mps 747 mmHg 92%
    22:00 +17°C° 0.1 mm 3 mps 747 mmHg 93%
    23:00 +15°C° 0.1 mm 5 mps 748 mmHg 94%

    30 May, Thursday

    Time Temperature Precipitation Wind Pressure Humidity
    00:00 +15°C° 0 mm 4 mps 748 mmHg 92%
    01:00 +14°C° 0 mm 4 mps 748 mmHg 91%
    02:00 +13°C° 0 mm 4 mps 749 mmHg 89%
    03:00 +13°C° 0 mm 4 mps 750 mmHg 88%
    04:00 +13°C° 0 mm 4 mps 750 mmHg 87%
    05:00 +12°C° 0 mm 4 mps 751 mmHg 86%
    06:00 +13°C° 0 mm 4 mps 751 mmHg 82%
    07:00 +14°C° 0 mm 4 mps 752 mmHg 78%
    08:00 +14°C° 0 mm 4 mps 752 mmHg 75%
    09:00 +17°C° 0 mm 4 mps 752 mmHg 68%
    10:00 +18°C° 0 mm 4 mps 752 mmHg 62%
    11:00 +19°C° 0 mm 4 mps 753 mmHg 55%
    12:00 +20°C° 0 mm 4 mps 752 mmHg 52%
    13:00 +20°C° 0 mm 4 mps 752 mmHg 49%
    14:00 +21°C° 0 mm 3 mps 752 mmHg 46%
    15:00 +20°C° 0 mm 3 mps 752 mmHg 46%
    16:00 +20°C° 0 mm 3 mps 752 mmHg 46%
    17:00 +20°C° 0 mm 3 mps 752 mmHg 46%
    18:00 +18°C° 0 mm 2 mps 752 mmHg 52%
    19:00 +16°C° 0 mm 2 mps 752 mmHg 58%
    20:00 +14°C° 0 mm 2 mps 752 mmHg 64%
    21:00 +13°C° 0 mm 2 mps 752 mmHg 65%
    22:00 +12°C° 0 mm 1 mps 752 mmHg 66%
    23:00 +12°C° 0 mm 1 mps 752 mmHg 67%
    Show more